Tracking 30995 objects as of 7-Jul-2025
HD Live streaming from Space Station
objects crossing your sky now

SKIPPER

Track SKIPPER now!
10-day predictions
SKIPPER is classified as:


NORAD ID: 23752
Int'l Code: 1995-072B
Perigee: 807.4 km
Apogee: 816.5 km
Inclination: 98.8 °
Period: 101.0 minutes
Semi major axis: 7182 km
RCS: 0.7042 m2 (medium)
Launch date: December 28, 1995
Source: United States (US)
Launch site: TYURATAM MISSILE AND SPACE COMPLEX (TTMTR)
Your satellite tracking list
Your tracking list is empty




NASA's NSSDC Master Catalog

Two Line Element Set (TLE):
1 23752U 95072B   25187.19048223 -.00000004  00000-0  16919-4 0  9999
2 23752  98.7792 254.0503 0006353  57.2030 302.9761 14.26105474536024
Source of the keplerian elements: AFSPC